Theta_e
332 332 332 332 332 332 332 330 328 330 331 332 333 332 332 332 332 333 334 333 332 330 328 327 326 326 327 327 328 328 329 330 330 330 328 325 322 321 319 317 317 318 319 318 317 318 318 319 319 322 325 327 331 334 334 335 333 332 333 332 330 328
333 333 332 332 332 332 332 332 331 331 332 333 333 332 332 332 333 334 333 331 329 327 326 326 326 327 328 328 328 328 329 329 329 329 329 327 323 322 321 319 317 316 317 318 319 320 321 321 321 323 325 326 331 334 334 334 333 333 333 332 331 328
333 332 332 332 333 332 332 332 332 332 333 334 333 332 332 332 333 333 330 328 327 326 326 327 328 328 328 328 328 328 328 328 328 328 328 328 324 322 322 321 318 318 318 319 323 326 326 326 326 325 324 325 327 329 333 335 333 333 333 332 332 330
333 332 332 332 333 333 333 332 332 333 333 333 332 332 332 332 333 331 327 326 327 327 328 329 329 329 328 328 328 327 327 327 328 328 328 328 326 323 323 322 320 323 324 323 325 328 329 330 330 329 324 324 326 325 331 335 333 333 333 333 332 331
333 333 333 333 333 333 333 332 332 332 332 331 331 332 332 331 332 328 325 326 327 328 329 329 329 328 329 329 328 327 326 327 327 327 327 328 327 325 324 323 321 323 327 328 327 327 328 329 331 331 325 325 330 331 333 335 333 332 332 332 331 330
333 333 334 333 334 333 332 331 331 331 330 331 332 332 331 331 330 327 325 326 327 328 328 328 327 327 328 328 328 328 327 327 327 326 327 328 328 327 325 324 323 323 326 329 330 329 330 330 331 332 330 328 332 333 334 335 334 332 331 332 332 331
334 333 334 333 333 333 332 331 330 329 329 330 331 331 331 330 328 326 325 326 326 327 327 326 327 327 327 328 328 328 328 328 327 326 327 328 329 328 328 327 327 326 326 328 330 330 331 331 330 331 331 330 331 332 334 334 333 332 332 332 332 332
335 334 334 334 333 332 332 332 330 329 330 330 330 329 329 328 327 327 326 326 327 327 327 326 327 328 328 328 327 327 328 328 329 329 329 329 328 329 329 328 329 329 328 328 330 330 330 330 330 329 329 329 330 331 332 333 333 332 332 332 332 332
335 334 334 333 333 332 332 332 330 330 330 329 328 327 328 327 327 327 327 328 327 327 327 327 327 328 328 328 327 328 328 329 329 328 329 329 329 328 328 328 328 327 327 328 329 329 328 328 328 328 329 330 329 330 331 332 332 332 332 332 332 331
334 333 333 332 332 332 332 332 331 330 330 329 329 328 328 328 326 327 328 329 328 326 326 327 327 328 328 327 328 327 327 327 327 328 328 329 329 328 328 328 328 327 327 327 329 329 327 326 327 328 329 329 329 329 329 330 330 331 331 331 332 331
333 333 332 332 332 332 331 331 332 331 329 329 329 329 329 328 327 327 328 329 328 326 325 325 327 328 327 326 327 327 326 326 327 328 328 328 328 328 328 328 328 327 327 328 328 328 326 326 327 329 329 328 328 328 328 328 327 329 331 331 332 331
334 333 332 332 331 331 330 330 331 331 330 328 328 329 328 328 328 328 328 328 328 327 326 325 327 328 327 326 328 328 328 328 327 327 327 327 328 328 328 328 327 326 327 328 328 327 326 327 328 329 330 328 328 328 328 328 326 327 330 331 331 331
333 332 332 332 332 330 329 329 330 330 329 328 328 328 328 328 328 329 329 329 328 328 328 327 327 327 326 327 328 329 329 328 327 327 326 326 327 327 327 327 326 326 327 328 327 326 326 328 328 329 329 327 328 327 327 327 327 326 329 330 330 330
333 332 332 332 332 331 330 330 328 328 329 329 329 329 330 329 329 330 330 329 329 329 328 327 327 327 327 328 329 329 329 328 328 327 325 325 325 326 327 326 325 326 327 328 327 326 326 328 329 329 328 327 327 327 326 326 327 327 327 327 328 329
333 333 332 332 332 331 332 330 328 329 329 329 329 330 330 330 329 329 329 328 328 328 328 328 327 327 327 327 328 329 329 328 328 327 325 325 325 325 326 326 326 326 327 327 326 326 327 328 330 329 328 327 326 327 326 325 326 326 325 326 327 328
333 332 332 331 331 331 331 329 329 329 329 330 330 330 330 329 329 329 328 327 328 328 328 329 327 327 326 326 328 329 329 329 328 327 326 325 326 326 326 326 326 326 327 326 326 327 327 328 329 328 327 327 326 327 326 325 326 326 326 326 326 328
333 333 331 331 330 330 330 329 329 330 330 331 330 328 329 330 330 329 328 327 327 327 326 327 326 326 327 327 328 329 328 328 328 328 327 326 326 326 326 325 325 326 326 325 326 327 326 326 327 326 327 327 327 327 326 325 325 326 327 327 326 328
333 333 331 330 330 330 331 331 330 330 331 330 330 329 329 330 329 327 328 327 326 325 326 326 325 326 328 328 329 329 328 328 328 328 327 327 327 327 326 326 326 325 325 325 325 326 326 326 326 326 328 327 327 328 326 326 326 325 326 327 327 329
332 332 330 330 331 331 330 330 330 330 330 331 331 331 331 330 328 325 326 326 323 322 323 325 326 326 327 328 329 329 328 328 328 328 327 327 327 326 326 327 326 325 324 325 325 324 325 326 326 327 329 329 329 328 328 327 326 326 326 326 326 328
331 330 330 330 330 329 329 329 329 329 330 331 331 331 331 329 329 325 323 322 318 318 320 322 324 325 326 327 327 327 328 328 327 327 327 326 326 327 327 326 325 325 325 324 323 323 324 326 326 327 329 330 329 328 328 328 327 327 327 325 325 326
328 327 328 328 327 327 328 327 327 329 330 330 330 331 330 329 329 327 324 320 315 316 318 320 323 324 325 327 327 326 326 327 327 327 327 326 326 327 327 327 325 324 324 323 323 323 325 326 325 326 328 329 329 328 328 328 327 326 326 326 326 326
325 325 325 325 327 328 327 325 326 330 330 329 330 330 329 329 328 326 325 322 318 318 317 318 320 322 325 326 326 326 325 326 326 327 328 328 327 327 327 327 327 325 324 325 325 324 326 326 325 326 327 327 328 329 328 327 326 325 326 327 325 325
324 324 322 323 327 327 325 325 327 328 328 328 329 330 329 329 327 325 324 322 320 319 319 321 321 320 323 323 323 324 325 325 325 326 327 327 327 328 327 328 328 327 326 326 326 326 326 326 326 326 326 326 328 328 328 328 326 324 325 327 326 326
324 322 322 323 325 327 327 328 327 326 327 328 330 329 326 323 320 320 319 320 322 324 324 325 324 322 321 319 320 321 323 324 325 325 326 326 327 327 327 327 327 327 327 327 326 326 326 325 326 326 326 326 326 327 328 328 327 325 324 326 326 326
324 322 323 322 324 329 329 328 327 327 327 328 330 327 321 321 321 320 318 320 323 324 326 326 325 325 319 315 317 319 321 323 324 326 326 326 327 326 326 326 326 326 327 327 327 326 326 325 326 326 326 326 325 326 329 328 326 326 325 325 326 326
325 325 325 324 328 329 326 327 328 327 327 329 328 322 318 322 324 323 320 321 324 324 325 325 324 323 315 313 319 321 321 322 323 325 326 327 327 327 327 326 325 326 326 326 327 327 326 326 326 326 326 327 325 326 328 328 326 326 327 325 326 327
328 328 328 328 328 326 323 326 328 328 329 328 323 318 319 322 324 323 321 322 325 324 324 322 319 317 314 316 322 324 324 324 322 322 324 327 327 326 327 326 326 325 324 325 325 326 325 325 326 326 326 326 326 325 326 327 327 326 326 326 326 326
327 328 327 326 326 324 323 327 329 327 325 320 317 319 322 323 324 323 322 322 323 322 324 323 320 319 318 318 322 325 325 324 323 322 322 324 325 325 324 324 325 324 323 324 325 325 324 325 326 325 326 326 326 326 326 326 327 326 326 326 325 325
325 325 325 324 324 324 322 322 322 320 319 320 323 323 322 323 324 322 321 323 323 323 325 325 323 323 323 321 321 324 325 324 324 324 323 321 321 323 322 321 323 324 323 324 325 324 324 325 325 325 325 325 325 326 326 327 326 326 325 325 325 325
322 324 323 323 322 320 316 314 314 315 319 323 326 325 321 322 321 320 323 325 325 324 324 325 324 324 324 323 321 323 324 323 323 324 323 319 319 322 322 322 323 323 323 323 324 324 325 325 325 324 325 325 325 325 326 327 326 325 325 325 325 324
321 322 321 321 320 316 313 312 314 316 318 320 323 323 319 316 317 321 325 326 325 323 322 322 324 324 324 323 322 321 322 323 323 323 322 319 319 321 321 321 322 322 322 322 324 325 325 325 324 324 325 325 325 325 325 326 326 325 325 324 323 323
320 322 321 320 319 315 314 314 316 316 316 316 318 318 313 310 312 319 322 322 321 320 321 322 322 323 324 323 322 320 320 323 323 322 322 319 318 320 321 320 320 321 321 322 324 325 324 324 323 323 324 324 324 324 324 325 325 324 323 323 322 322
320 321 320 319 319 317 316 316 316 317 317 316 316 313 309 308 309 313 317 319 320 320 321 319 316 319 323 323 322 319 319 322 322 320 319 318 316 318 320 319 318 319 321 323 323 323 322 322 321 322 322 322 322 323 324 323 323 323 322 321 321 321
319 320 320 319 319 318 318 317 315 317 318 317 315 311 308 309 307 311 318 322 321 320 319 317 313 314 318 319 317 314 314 318 320 319 317 317 316 316 316 315 314 315 318 321 323 321 321 321 320 321 320 319 319 322 323 323 322 322 322 321 320 320
319 319 319 320 319 319 319 318 316 318 320 317 313 309 307 309 310 314 319 321 321 321 320 320 315 311 313 315 312 309 308 311 317 318 316 317 315 313 311 310 310 309 311 317 321 320 318 318 318 319 319 317 318 320 322 323 322 322 322 321 320 319
320 319 320 319 319 319 319 317 316 319 321 317 312 309 308 311 314 316 318 319 322 323 322 321 316 310 310 310 309 307 306 308 312 315 316 316 312 308 307 306 306 306 306 311 317 317 315 315 315 316 317 316 317 318 321 322 322 321 321 320 320 319
320 320 319 319 319 319 318 316 318 321 321 316 311 308 308 312 316 318 317 320 324 323 322 322 317 311 308 307 306 306 306 306 308 310 311 311 308 306 306 305 305 305 305 307 310 312 312 312 312 312 314 316 317 318 320 321 319 318 318 317 318 319
Wind_Speed
26 25 24 24 23 21 20 19 18 16 15 14 13 13 12 12 11 12 12 11 11 9 8 7 7 6 6 5 4 3 3 3 2 2 2 3 4 5 5 4 4 3 4 4 4 5 6 6 6 8 11 13 13 11 9 6 5 4 6 7 5 4
24 24 24 23 21 21 19 18 18 17 16 14 14 14 13 12 12 13 12 11 10 9 8 7 6 6 5 4 3 2 3 2 1 0 0 1 3 4 4 5 4 3 4 5 6 7 7 6 6 6 9 13 13 12 9 4 3 4 9 7 5 5
22 23 23 22 21 20 19 18 17 17 16 15 15 15 14 12 12 12 11 10 9 8 8 7 6 5 4 3 3 2 2 2 1 1 1 1 2 3 4 5 5 5 6 9 10 10 10 9 8 5 5 10 12 10 8 3 3 4 9 8 6 5
22 22 22 21 20 19 19 18 17 17 16 16 16 15 14 12 12 11 10 10 9 8 8 7 6 5 4 3 3 3 2 2 2 2 3 3 2 2 3 5 6 7 8 10 10 11 11 10 10 8 3 6 8 8 6 3 3 5 9 8 7 5
22 21 21 21 20 18 18 18 18 18 16 16 15 15 14 13 13 11 10 10 8 9 8 8 6 5 4 3 3 3 3 2 2 2 3 3 3 3 3 4 5 7 8 8 9 10 10 9 9 10 7 6 4 3 6 6 6 7 9 9 7 5
22 20 21 20 19 18 18 17 18 18 16 15 14 14 13 13 13 12 11 10 10 10 9 8 6 5 3 3 4 4 3 3 3 3 3 3 3 4 3 3 4 5 7 7 7 7 7 6 4 7 9 8 5 4 8 10 10 10 11 10 9 7
21 20 21 20 19 19 17 17 17 17 16 15 14 14 14 13 13 12 11 10 11 11 9 8 5 4 4 4 4 4 4 4 3 3 4 4 3 3 3 4 4 4 5 5 5 4 5 4 2 6 7 7 8 7 9 12 12 11 11 11 10 9
20 20 20 19 18 19 18 18 18 16 15 14 13 12 13 12 12 12 11 10 10 10 10 7 5 5 5 5 5 5 4 4 4 4 4 5 5 4 4 5 4 3 4 4 4 3 4 4 4 7 8 8 11 10 9 12 13 12 11 10 10 8
22 22 20 18 18 18 18 18 18 17 15 14 13 12 12 12 11 11 11 10 10 10 8 6 5 6 6 6 6 5 5 4 5 5 5 6 7 7 5 5 5 4 4 3 4 4 4 4 5 9 11 10 11 9 9 10 12 14 12 10 9 7
23 23 21 19 19 19 18 17 17 16 15 14 13 11 11 11 10 10 10 9 9 9 7 5 6 7 8 8 6 6 6 6 6 5 6 7 8 8 7 5 5 5 5 4 5 5 4 5 7 10 12 12 11 8 7 9 11 12 11 10 8 6
22 23 23 20 20 19 17 17 17 16 14 14 13 12 11 11 10 9 10 9 9 8 8 7 7 9 10 9 7 7 7 7 6 7 7 7 8 8 7 6 5 5 5 4 5 6 5 5 8 9 9 12 12 8 7 8 9 8 8 9 7 4
23 23 23 21 20 19 18 17 17 15 13 14 13 11 11 10 9 8 9 10 9 9 9 8 9 10 11 10 8 7 8 8 8 7 7 7 8 7 6 6 5 5 5 4 5 6 5 4 7 9 8 9 10 8 8 9 10 8 7 7 6 4
23 22 21 20 20 20 20 18 16 13 13 13 11 9 9 9 9 9 8 9 9 9 9 9 10 10 11 9 7 7 7 8 8 7 7 8 7 6 6 6 6 6 5 4 4 5 5 3 4 8 9 9 7 7 8 9 9 8 8 7 5 3
24 21 20 18 19 20 20 19 16 13 13 12 10 8 8 8 8 8 7 7 8 9 8 9 10 10 9 7 6 7 6 7 8 7 8 8 6 5 6 6 6 6 5 5 5 5 5 3 3 6 8 8 7 6 6 6 5 5 6 5 3 3
23 20 20 18 18 18 18 18 17 15 14 12 10 9 8 7 7 7 7 6 7 8 8 8 9 8 7 5 5 7 6 6 7 6 6 6 6 5 6 6 6 5 5 6 5 4 4 3 3 4 5 6 7 6 4 3 5 6 4 3 2 3
22 20 20 18 16 16 16 17 16 15 14 11 11 9 9 8 7 6 6 6 8 8 8 7 7 6 4 4 5 7 6 6 6 6 5 5 6 6 5 6 5 5 5 5 4 3 3 3 3 4 4 5 6 5 2 2 5 5 5 5 4 4
22 21 20 18 17 16 15 15 15 15 13 11 11 9 8 8 6 6 5 5 7 7 7 7 6 4 3 4 4 6 5 5 6 5 4 5 6 5 5 5 5 5 5 5 4 4 5 4 4 3 3 4 5 3 2 4 4 3 5 6 5 5
22 20 19 18 17 16 15 14 14 15 13 13 12 10 9 8 6 6 5 5 5 5 4 4 4 3 3 4 4 5 5 4 5 4 4 5 5 6 5 5 5 5 5 5 4 5 5 5 5 4 2 4 5 5 4 5 4 3 6 7 6 7
23 22 21 19 17 17 16 16 17 17 16 14 13 12 10 7 5 5 6 6 5 5 4 4 4 4 3 3 4 4 4 3 4 4 5 5 5 6 6 6 5 4 4 5 6 6 4 4 5 5 5 5 4 5 4 4 4 3 4 5 6 7
27 25 22 20 19 19 18 18 19 17 15 13 13 12 9 6 5 5 6 7 6 6 5 5 5 5 5 4 3 3 3 3 3 3 4 5 5 5 5 5 4 4 5 5 6 6 5 4 5 6 7 6 4 4 4 4 4 3 3 3 4 5
27 24 21 20 19 19 20 19 19 17 15 14 13 12 10 8 7 5 5 6 6 6 5 5 5 4 5 5 4 3 3 3 3 4 4 5 6 5 5 5 5 5 5 5 6 6 6 6 7 8 9 7 6 5 4 3 3 2 3 3 3 4
24 24 22 21 20 19 19 18 18 17 15 15 15 12 12 11 8 6 6 5 5 6 5 4 4 4 4 5 5 5 5 4 3 4 4 5 5 4 4 4 5 5 4 5 5 6 6 7 8 9 10 10 9 9 7 5 4 3 3 3 3 5
24 26 26 24 22 20 18 17 18 17 15 16 16 13 12 11 9 8 7 6 7 9 8 6 4 4 4 5 5 5 5 5 5 5 4 3 4 3 3 4 4 4 5 5 6 6 6 7 8 9 9 9 10 13 13 12 9 6 5 4 4 5
27 29 30 27 24 22 20 19 18 17 15 17 16 12 11 11 10 10 9 9 10 10 9 7 4 2 2 4 5 5 5 4 5 6 5 5 4 3 3 4 4 4 6 7 7 7 7 6 7 8 8 8 10 11 13 15 13 10 8 6 6 6
30 32 31 27 25 24 23 22 21 19 17 17 15 11 10 11 10 9 8 11 11 11 10 9 7 3 2 4 5 6 6 3 4 5 5 5 6 5 5 4 4 5 7 7 6 6 7 7 6 6 6 7 7 8 13 16 14 12 10 8 9 8
34 34 30 27 27 26 25 25 23 21 20 18 15 11 11 12 10 8 8 12 12 12 12 11 8 5 4 7 7 7 8 6 4 5 4 5 6 6 5 5 5 5 6 6 5 5 6 7 7 7 6 6 6 8 15 16 12 13 11 9 10 9
36 35 32 32 30 27 26 25 23 22 20 17 15 13 12 11 11 9 9 11 12 12 11 8 6 4 5 10 10 8 9 8 6 5 4 5 6 6 6 6 6 5 5 5 5 5 6 7 7 7 7 7 8 11 14 13 13 16 14 10 10 11
35 35 34 32 30 27 24 25 24 22 18 16 15 15 13 12 11 9 8 9 10 10 9 7 7 7 7 9 12 10 9 8 6 4 3 4 5 4 4 6 6 5 6 6 6 5 6 8 7 7 8 8 10 11 11 10 11 13 15 14 12 11
33 33 31 30 28 25 23 24 25 22 19 16 14 13 13 13 11 10 10 11 11 11 11 9 8 8 7 7 9 12 11 9 6 3 1 2 5 5 4 5 6 6 6 7 7 6 7 9 9 8 8 9 10 10 9 10 10 10 12 15 15 13
31 31 30 28 26 24 23 25 25 22 19 16 13 12 12 12 11 12 13 13 13 12 12 13 10 8 7 6 7 12 13 10 8 6 2 2 5 6 5 5 6 6 6 7 7 6 6 8 9 9 9 8 8 10 10 12 13 12 12 15 17 17
31 30 30 28 25 23 24 24 21 18 17 16 13 12 11 12 13 15 14 13 12 9 10 13 13 10 9 7 7 11 14 11 9 7 4 3 5 6 6 6 6 6 6 7 9 9 10 11 12 12 12 10 8 8 10 14 14 13 16 19 22 22
32 31 30 28 25 22 23 22 19 15 15 16 14 12 12 13 14 14 13 12 10 8 8 10 13 12 11 9 7 8 13 13 10 7 5 4 4 6 6 6 7 7 7 9 12 15 16 16 16 16 16 15 13 11 11 14 14 14 17 21 23 24
33 32 29 27 24 23 23 23 21 17 16 16 14 12 12 13 13 12 11 11 8 7 7 6 10 14 13 11 8 6 11 14 11 9 7 5 5 6 7 7 8 9 10 12 14 16 17 16 16 17 17 16 16 15 14 15 16 17 19 20 22 23
33 31 28 26 24 24 24 24 22 19 17 17 15 12 12 13 13 13 11 10 7 6 5 5 9 13 14 12 9 7 10 13 13 11 9 7 6 6 6 7 8 10 11 13 14 15 15 15 15 15 15 14 15 17 17 17 15 16 18 19 20 21
33 31 28 27 26 25 24 24 23 20 18 17 15 13 13 13 13 14 12 10 7 5 4 4 6 9 10 9 7 9 11 13 14 12 10 8 6 6 7 9 10 11 11 13 14 14 14 14 15 15 14 14 14 16 17 17 15 15 15 16 17 19
33 30 28 28 28 26 26 26 25 22 19 18 16 15 14 14 14 13 12 10 8 6 5 4 5 6 8 8 8 10 11 12 14 14 11 8 7 9 11 11 12 12 13 14 15 15 15 14 14 15 16 15 15 15 16 17 16 15 14 13 13 16
33 31 31 30 30 29 29 29 26 22 19 18 16 15 15 15 15 13 13 12 10 8 6 5 4 6 7 9 9 9 9 11 11 12 11 9 8 10 10 10 10 11 12 14 14 14 13 11 11 13 14 15 16 17 17 17 15 13 13 11 10 13
Wind_Direction
166 163 162 161 163 164 166 167 169 170 163 161 162 164 166 161 159 161 163 164 158 158 162 163 159 150 142 141 139 139 141 144 138 88 63 74 82 79 79 85 94 117 141 148 137 137 148 146 134 133 144 148 142 135 138 164 193 212 247 270 299 340
168 166 165 165 166 166 168 168 170 168 163 165 167 168 168 165 165 164 167 165 160 159 161 162 158 154 151 150 158 173 179 182 174 79 25 93 85 81 84 88 89 109 132 134 120 115 119 120 116 128 149 152 150 139 125 141 183 235 259 275 308 333
170 169 168 168 168 168 171 171 171 167 165 168 169 170 169 169 169 166 167 163 160 159 161 162 161 167 165 162 180 206 210 222 219 197 194 165 95 89 94 92 94 103 117 120 112 106 105 103 96 94 150 164 168 164 138 149 206 251 268 279 301 317
173 173 172 171 171 172 174 173 170 169 171 170 170 171 171 173 168 164 165 163 164 165 168 169 173 178 170 173 192 208 219 241 240 204 189 187 161 124 119 115 117 119 123 133 134 129 123 115 103 85 96 170 177 186 172 196 235 250 264 276 291 299
178 177 175 174 172 175 178 174 169 170 174 172 171 170 169 172 164 163 170 168 173 178 179 181 186 184 173 191 203 205 218 238 247 240 215 194 192 195 163 138 137 137 136 143 150 152 143 129 118 104 107 145 160 211 209 222 239 241 255 269 277 281
181 180 178 175 170 174 177 172 168 170 175 174 172 168 167 170 165 169 176 176 185 192 190 189 195 193 186 213 220 220 232 234 237 255 250 219 206 208 198 168 152 150 154 157 163 164 155 143 137 133 135 153 173 244 240 229 231 236 248 261 265 267
180 179 179 175 169 169 170 169 167 169 173 172 170 168 167 171 172 176 183 188 197 205 202 197 199 206 219 231 232 243 246 240 247 269 264 255 237 207 201 200 177 166 174 181 188 178 166 170 174 167 166 184 193 214 243 236 228 233 240 250 257 259
176 178 179 174 168 165 166 167 164 167 169 167 170 171 172 178 179 179 191 202 211 216 208 199 196 211 235 237 242 257 245 245 272 283 269 262 257 228 212 218 212 203 196 199 212 201 191 190 178 186 193 212 210 202 223 232 229 232 234 240 247 250
174 179 180 174 167 162 165 166 163 165 166 167 176 178 179 185 182 183 200 215 223 220 208 204 215 231 247 245 250 259 245 250 275 286 275 259 252 242 236 233 225 224 220 219 232 223 211 204 196 204 205 214 223 215 209 219 232 236 235 239 239 236
174 175 176 172 165 160 162 167 164 166 168 171 179 181 182 187 187 191 208 227 234 224 218 232 247 249 249 251 257 263 254 249 265 280 270 253 246 246 248 247 238 238 231 228 240 231 230 231 207 203 209 212 215 223 226 223 235 238 232 233 227 217
173 171 172 169 163 161 164 170 166 166 171 171 176 182 183 186 189 196 209 226 239 236 236 247 252 251 249 252 258 266 259 244 250 263 262 253 247 248 252 258 257 252 240 232 240 234 241 237 202 193 210 215 209 225 245 227 235 247 238 226 208 194
172 171 172 169 163 161 166 170 168 169 171 171 176 180 179 182 191 203 211 220 232 240 244 250 249 248 253 255 252 261 259 248 250 255 260 256 251 252 255 260 258 259 253 238 242 239 246 244 206 198 211 224 227 241 243 233 244 249 244 232 199 179
170 171 172 170 164 161 163 165 166 170 170 171 175 177 178 181 192 205 213 216 226 237 244 251 249 250 260 263 259 261 255 249 252 254 257 254 254 254 252 256 250 253 249 238 253 247 246 263 222 206 212 228 244 248 237 241 252 237 233 240 214 193
168 170 172 171 168 162 158 158 161 164 165 168 172 174 180 181 188 200 210 214 221 235 241 241 240 245 253 255 264 266 254 247 245 246 254 255 256 248 243 250 245 244 243 234 244 239 241 265 234 208 215 234 245 240 238 248 243 210 217 230 213 200
167 169 171 172 169 162 154 154 159 159 161 166 170 171 175 175 177 186 194 196 204 219 223 221 224 228 228 218 240 251 247 247 238 236 253 259 263 260 250 251 244 237 239 236 233 233 245 251 236 222 223 239 236 223 237 251 205 185 190 199 199 199
165 166 168 166 163 159 154 155 156 157 163 165 164 165 166 162 158 165 170 169 178 188 185 194 205 207 211 206 221 233 235 240 237 238 250 252 261 267 261 254 246 235 231 232 230 232 236 217 221 241 234 221 213 216 238 171 170 187 193 189 190 189
164 163 161 159 158 157 155 155 152 153 158 153 149 154 158 153 148 155 156 153 161 162 163 175 180 180 210 216 220 233 232 229 236 242 245 245 252 257 253 246 236 228 225 224 220 222 224 208 204 229 243 211 185 182 209 166 150 179 176 178 186 182
163 160 156 158 158 158 156 152 148 145 140 135 134 135 137 135 134 149 152 151 152 136 136 151 144 147 192 200 202 222 225 222 235 239 239 246 249 248 242 234 224 217 218 216 211 215 220 207 194 190 189 194 169 137 154 168 160 157 153 165 178 174
161 159 157 160 157 156 154 147 146 140 131 127 124 122 123 127 131 148 151 149 145 127 126 133 126 133 157 163 172 202 220 223 234 234 234 237 238 240 233 228 219 205 212 215 214 215 213 205 192 178 167 161 152 143 146 162 173 180 165 170 175 179
158 159 160 160 156 156 153 149 149 142 132 125 121 122 125 136 139 144 151 153 151 137 135 144 139 141 145 142 152 182 202 206 216 218 224 225 220 222 221 225 220 207 215 219 221 212 192 187 175 163 162 145 120 125 138 157 178 210 214 206 204 207
159 161 160 159 157 158 155 152 148 140 136 135 134 139 144 152 150 142 143 146 145 135 136 146 141 135 136 138 139 137 148 172 194 192 200 216 215 214 209 214 220 217 216 212 217 206 181 180 177 166 159 146 125 111 118 143 145 165 194 209 217 210
162 158 156 159 160 160 156 152 148 142 143 146 149 154 154 158 161 153 148 135 123 120 122 128 128 129 123 119 120 120 124 136 161 175 187 207 209 213 206 200 210 215 208 200 201 194 183 181 181 176 164 153 135 111 95 98 112 124 145 169 186 191
161 156 156 162 159 154 151 150 150 146 148 151 157 167 168 173 180 178 175 154 123 112 106 102 111 129 122 118 124 122 124 131 142 152 162 185 201 221 222 202 200 201 193 190 188 181 180 180 172 165 162 155 140 123 103 98 108 120 127 139 151 167
160 158 161 166 155 149 150 150 150 149 151 155 163 173 169 169 173 172 165 148 133 119 108 102 109 128 132 139 133 120 121 134 139 142 149 158 167 177 184 188 191 194 191 187 185 177 169 172 166 162 162 150 142 134 117 114 117 119 123 129 134 153
160 160 164 164 153 154 158 155 154 158 161 162 168 171 154 143 149 155 146 144 143 136 134 137 148 184 201 153 136 119 112 115 128 128 143 151 146 145 142 158 172 183 190 182 179 175 161 162 166 166 164 148 146 137 128 132 127 118 126 133 135 149
159 160 163 160 158 163 164 159 160 166 170 171 170 161 145 140 151 158 140 140 139 140 156 166 175 202 174 137 134 121 98 80 93 109 121 130 127 135 140 148 155 161 179 173 168 172 160 168 179 176 164 144 141 136 137 144 135 119 124 134 140 144
159 161 162 162 166 170 167 163 166 169 172 174 168 152 144 147 157 161 146 146 149 150 162 163 157 167 141 133 134 123 102 88 87 92 109 132 133 143 152 155 153 142 155 159 159 168 153 156 171 174 165 141 130 133 142 150 142 129 127 132 145 143
161 161 162 164 170 173 171 168 169 171 167 167 164 154 153 155 161 172 158 147 148 143 138 117 105 108 112 131 136 129 116 109 103 92 106 154 168 172 158 153 150 138 142 147 150 161 146 135 139 148 156 152 145 143 142 138 139 140 134 133 142 139
164 163 164 166 169 173 174 169 166 165 158 156 161 161 164 168 173 175 151 135 136 133 130 123 112 107 102 115 135 141 136 126 135 147 113 161 175 176 158 137 133 130 136 137 142 153 141 130 131 132 138 149 156 156 147 136 139 147 136 133 140 140
169 167 168 168 167 170 172 168 163 159 153 155 166 172 177 180 171 158 145 145 155 152 147 143 134 131 130 119 130 151 151 134 139 162 170 143 148 146 139 126 121 120 121 120 122 126 122 119 120 119 118 127 145 153 152 150 149 145 135 134 137 137
176 173 172 170 168 169 169 167 168 165 156 157 171 181 184 180 165 157 155 162 174 170 159 155 149 143 142 139 137 150 155 144 138 155 167 137 129 130 135 134 125 121 121 117 112 108 103 101 102 103 101 101 118 138 148 150 150 144 138 135 132 130
181 177 176 173 169 171 173 177 185 182 166 163 174 182 182 176 168 166 165 168 177 173 165 166 166 162 152 151 156 151 155 155 147 149 145 121 119 130 137 140 137 133 130 124 119 114 108 104 102 101 97 93 96 108 128 140 142 141 139 135 131 129
186 183 181 176 172 178 185 191 196 192 178 173 179 180 175 171 170 168 160 159 169 174 176 167 165 174 173 173 185 172 159 159 154 147 137 120 124 138 144 144 140 135 131 127 125 122 117 113 110 107 106 100 97 101 112 126 131 133 134 133 131 131
191 189 185 181 183 189 194 198 200 197 187 179 181 180 174 171 168 163 158 163 170 173 176 146 144 165 176 182 187 167 155 158 157 151 138 131 136 144 149 142 134 132 129 129 130 129 126 122 119 119 117 111 107 108 113 124 131 133 135 133 133 136
194 193 190 190 195 199 201 203 204 201 191 184 184 179 175 173 166 160 160 166 171 168 169 160 152 156 162 170 160 137 138 147 154 154 145 141 136 129 132 129 127 129 129 133 137 135 131 131 132 134 130 123 119 115 118 128 136 142 141 137 138 144
197 198 198 199 203 204 203 204 205 202 195 190 187 182 177 170 164 162 163 163 167 180 195 195 176 153 143 147 141 133 133 138 150 156 154 153 134 123 126 125 125 125 123 131 140 138 135 138 140 141 139 135 130 126 128 134 138 142 142 135 145 159
200 202 203 204 205 202 200 202 204 202 198 193 189 185 177 167 164 164 161 164 174 193 210 213 181 149 138 139 141 144 143 140 147 152 153 154 140 128 125 122 122 121 119 126 137 141 142 140 135 138 145 145 138 132 135 142 139 134 133 125 131 156